<?xml version="1.0"?>
<gpx xmlns="http://www.topografix.com/GPX/1/1" xmlns:xsi="http://www.w3.org/2001/XMLSchema-instance" version="1.1" creator="GPX RubyGem 1.0.0 -- http://dougfales.github.io/gpx/" xsi:schemaLocation="http://www.topografix.com/GPX/1/1 http://www.topografix.com/GPX/1/1/gpx.xsd">
  <metadata>
    <name/>
    <time>2026-05-08T01:44:04+00:00</time>
    <bound minlat="90.0" minlon="180.0" maxlat="-90.0" maxlon="-180.0"/>
  </metadata>
  <trk>
    <name/>
    <trkseg>
      <trkpt lat="46.302276" lon="6.539309">
        <time>1970-01-01T00:00:00+00:00</time>
        <ele>788.0</ele>
      </trkpt>
      <trkpt lat="46.302312" lon="6.538052">
        <time>1970-01-01T00:00:00+00:00</time>
        <ele>789.0</ele>
      </trkpt>
      <trkpt lat="46.302307" lon="6.537898">
        <time>1970-01-01T00:00:00+00:00</time>
        <ele>790.0</ele>
      </trkpt>
      <trkpt lat="46.302254" lon="6.537684">
        <time>1970-01-01T00:00:00+00:00</time>
        <ele>790.0</ele>
      </trkpt>
      <trkpt lat="46.302299" lon="6.537622">
        <time>1970-01-01T00:00:00+00:00</time>
        <ele>790.0</ele>
      </trkpt>
      <trkpt lat="46.302313" lon="6.537446">
        <time>1970-01-01T00:00:00+00:00</time>
        <ele>790.0</ele>
      </trkpt>
      <trkpt lat="46.302299" lon="6.537297">
        <time>1970-01-01T00:00:00+00:00</time>
        <ele>790.0</ele>
      </trkpt>
      <trkpt lat="46.30222" lon="6.536984">
        <time>1970-01-01T00:00:00+00:00</time>
        <ele>791.0</ele>
      </trkpt>
      <trkpt lat="46.302203" lon="6.53693">
        <time>1970-01-01T00:00:00+00:00</time>
        <ele>791.0</ele>
      </trkpt>
      <trkpt lat="46.302947" lon="6.536209">
        <time>1970-01-01T00:00:00+00:00</time>
        <ele>801.0</ele>
      </trkpt>
      <trkpt lat="46.303011" lon="6.536123">
        <time>1970-01-01T00:00:00+00:00</time>
        <ele>803.0</ele>
      </trkpt>
      <trkpt lat="46.303123" lon="6.535911">
        <time>1970-01-01T00:00:00+00:00</time>
        <ele>805.0</ele>
      </trkpt>
      <trkpt lat="46.303414" lon="6.535519">
        <time>1970-01-01T00:00:00+00:00</time>
        <ele>812.0</ele>
      </trkpt>
      <trkpt lat="46.303731" lon="6.53531">
        <time>1970-01-01T00:00:00+00:00</time>
        <ele>819.0</ele>
      </trkpt>
      <trkpt lat="46.303792" lon="6.535273">
        <time>1970-01-01T00:00:00+00:00</time>
        <ele>820.0</ele>
      </trkpt>
      <trkpt lat="46.30385" lon="6.535209">
        <time>1970-01-01T00:00:00+00:00</time>
        <ele>822.0</ele>
      </trkpt>
      <trkpt lat="46.303958" lon="6.534965">
        <time>1970-01-01T00:00:00+00:00</time>
        <ele>826.0</ele>
      </trkpt>
      <trkpt lat="46.303974" lon="6.53487">
        <time>1970-01-01T00:00:00+00:00</time>
        <ele>827.0</ele>
      </trkpt>
      <trkpt lat="46.304041" lon="6.5349">
        <time>1970-01-01T00:00:00+00:00</time>
        <ele>827.0</ele>
      </trkpt>
      <trkpt lat="46.304054" lon="6.53479">
        <time>1970-01-01T00:00:00+00:00</time>
        <ele>829.0</ele>
      </trkpt>
      <trkpt lat="46.304003" lon="6.534676">
        <time>1970-01-01T00:00:00+00:00</time>
        <ele>829.0</ele>
      </trkpt>
      <trkpt lat="46.303997" lon="6.534617">
        <time>1970-01-01T00:00:00+00:00</time>
        <ele>830.0</ele>
      </trkpt>
      <trkpt lat="46.304004" lon="6.534559">
        <time>1970-01-01T00:00:00+00:00</time>
        <ele>831.0</ele>
      </trkpt>
      <trkpt lat="46.304029" lon="6.534512">
        <time>1970-01-01T00:00:00+00:00</time>
        <ele>832.0</ele>
      </trkpt>
      <trkpt lat="46.304183" lon="6.534321">
        <time>1970-01-01T00:00:00+00:00</time>
        <ele>837.0</ele>
      </trkpt>
      <trkpt lat="46.304335" lon="6.534223">
        <time>1970-01-01T00:00:00+00:00</time>
        <ele>840.0</ele>
      </trkpt>
      <trkpt lat="46.304567" lon="6.534121">
        <time>1970-01-01T00:00:00+00:00</time>
        <ele>844.0</ele>
      </trkpt>
      <trkpt lat="46.304609" lon="6.534079">
        <time>1970-01-01T00:00:00+00:00</time>
        <ele>846.0</ele>
      </trkpt>
      <trkpt lat="46.304656" lon="6.533992">
        <time>1970-01-01T00:00:00+00:00</time>
        <ele>849.0</ele>
      </trkpt>
      <trkpt lat="46.304656" lon="6.53395">
        <time>1970-01-01T00:00:00+00:00</time>
        <ele>850.0</ele>
      </trkpt>
      <trkpt lat="46.304536" lon="6.533748">
        <time>1970-01-01T00:00:00+00:00</time>
        <ele>853.0</ele>
      </trkpt>
      <trkpt lat="46.304546" lon="6.533576">
        <time>1970-01-01T00:00:00+00:00</time>
        <ele>855.0</ele>
      </trkpt>
      <trkpt lat="46.304645" lon="6.533518">
        <time>1970-01-01T00:00:00+00:00</time>
        <ele>856.0</ele>
      </trkpt>
      <trkpt lat="46.304657" lon="6.533537">
        <time>1970-01-01T00:00:00+00:00</time>
        <ele>856.0</ele>
      </trkpt>
      <trkpt lat="46.304727" lon="6.533518">
        <time>1970-01-01T00:00:00+00:00</time>
        <ele>856.0</ele>
      </trkpt>
      <trkpt lat="46.304881" lon="6.533601">
        <time>1970-01-01T00:00:00+00:00</time>
        <ele>857.0</ele>
      </trkpt>
      <trkpt lat="46.304936" lon="6.533609">
        <time>1970-01-01T00:00:00+00:00</time>
        <ele>858.0</ele>
      </trkpt>
      <trkpt lat="46.305051" lon="6.533575">
        <time>1970-01-01T00:00:00+00:00</time>
        <ele>860.0</ele>
      </trkpt>
      <trkpt lat="46.305122" lon="6.53358">
        <time>1970-01-01T00:00:00+00:00</time>
        <ele>861.0</ele>
      </trkpt>
      <trkpt lat="46.305228" lon="6.533687">
        <time>1970-01-01T00:00:00+00:00</time>
        <ele>862.0</ele>
      </trkpt>
      <trkpt lat="46.305468" lon="6.533792">
        <time>1970-01-01T00:00:00+00:00</time>
        <ele>867.0</ele>
      </trkpt>
      <trkpt lat="46.305927" lon="6.534092">
        <time>1970-01-01T00:00:00+00:00</time>
        <ele>876.0</ele>
      </trkpt>
      <trkpt lat="46.305962" lon="6.53426">
        <time>1970-01-01T00:00:00+00:00</time>
        <ele>875.0</ele>
      </trkpt>
      <trkpt lat="46.30601" lon="6.534338">
        <time>1970-01-01T00:00:00+00:00</time>
        <ele>876.0</ele>
      </trkpt>
      <trkpt lat="46.306074" lon="6.534372">
        <time>1970-01-01T00:00:00+00:00</time>
        <ele>877.0</ele>
      </trkpt>
      <trkpt lat="46.306134" lon="6.53434">
        <time>1970-01-01T00:00:00+00:00</time>
        <ele>878.0</ele>
      </trkpt>
      <trkpt lat="46.306174" lon="6.534366">
        <time>1970-01-01T00:00:00+00:00</time>
        <ele>879.0</ele>
      </trkpt>
      <trkpt lat="46.306222" lon="6.534331">
        <time>1970-01-01T00:00:00+00:00</time>
        <ele>880.0</ele>
      </trkpt>
      <trkpt lat="46.306253" lon="6.534255">
        <time>1970-01-01T00:00:00+00:00</time>
        <ele>881.0</ele>
      </trkpt>
      <trkpt lat="46.306301" lon="6.53377">
        <time>1970-01-01T00:00:00+00:00</time>
        <ele>887.0</ele>
      </trkpt>
      <trkpt lat="46.306325" lon="6.53368">
        <time>1970-01-01T00:00:00+00:00</time>
        <ele>889.0</ele>
      </trkpt>
      <trkpt lat="46.306403" lon="6.533634">
        <time>1970-01-01T00:00:00+00:00</time>
        <ele>891.0</ele>
      </trkpt>
      <trkpt lat="46.306434" lon="6.533684">
        <time>1970-01-01T00:00:00+00:00</time>
        <ele>891.0</ele>
      </trkpt>
      <trkpt lat="46.306492" lon="6.533681">
        <time>1970-01-01T00:00:00+00:00</time>
        <ele>892.0</ele>
      </trkpt>
      <trkpt lat="46.306842" lon="6.53371">
        <time>1970-01-01T00:00:00+00:00</time>
        <ele>901.0</ele>
      </trkpt>
      <trkpt lat="46.307077" lon="6.533716">
        <time>1970-01-01T00:00:00+00:00</time>
        <ele>906.0</ele>
      </trkpt>
      <trkpt lat="46.30712" lon="6.533745">
        <time>1970-01-01T00:00:00+00:00</time>
        <ele>907.0</ele>
      </trkpt>
      <trkpt lat="46.307202" lon="6.533853">
        <time>1970-01-01T00:00:00+00:00</time>
        <ele>908.0</ele>
      </trkpt>
      <trkpt lat="46.307196" lon="6.533903">
        <time>1970-01-01T00:00:00+00:00</time>
        <ele>908.0</ele>
      </trkpt>
      <trkpt lat="46.307382" lon="6.534061">
        <time>1970-01-01T00:00:00+00:00</time>
        <ele>911.0</ele>
      </trkpt>
      <trkpt lat="46.307538" lon="6.53432">
        <time>1970-01-01T00:00:00+00:00</time>
        <ele>913.0</ele>
      </trkpt>
      <trkpt lat="46.307647" lon="6.534624">
        <time>1970-01-01T00:00:00+00:00</time>
        <ele>914.0</ele>
      </trkpt>
      <trkpt lat="46.30774" lon="6.534735">
        <time>1970-01-01T00:00:00+00:00</time>
        <ele>916.0</ele>
      </trkpt>
      <trkpt lat="46.307794" lon="6.534807">
        <time>1970-01-01T00:00:00+00:00</time>
        <ele>917.0</ele>
      </trkpt>
      <trkpt lat="46.307894" lon="6.534855">
        <time>1970-01-01T00:00:00+00:00</time>
        <ele>920.0</ele>
      </trkpt>
      <trkpt lat="46.308159" lon="6.535179">
        <time>1970-01-01T00:00:00+00:00</time>
        <ele>927.0</ele>
      </trkpt>
      <trkpt lat="46.3084" lon="6.535281">
        <time>1970-01-01T00:00:00+00:00</time>
        <ele>934.0</ele>
      </trkpt>
      <trkpt lat="46.308563" lon="6.535413">
        <time>1970-01-01T00:00:00+00:00</time>
        <ele>938.0</ele>
      </trkpt>
      <trkpt lat="46.308615" lon="6.535483">
        <time>1970-01-01T00:00:00+00:00</time>
        <ele>939.0</ele>
      </trkpt>
      <trkpt lat="46.308941" lon="6.536142">
        <time>1970-01-01T00:00:00+00:00</time>
        <ele>949.0</ele>
      </trkpt>
      <trkpt lat="46.308993" lon="6.53622">
        <time>1970-01-01T00:00:00+00:00</time>
        <ele>951.0</ele>
      </trkpt>
      <trkpt lat="46.309135" lon="6.536381">
        <time>1970-01-01T00:00:00+00:00</time>
        <ele>955.0</ele>
      </trkpt>
      <trkpt lat="46.309354" lon="6.536432">
        <time>1970-01-01T00:00:00+00:00</time>
        <ele>960.0</ele>
      </trkpt>
      <trkpt lat="46.309463" lon="6.536303">
        <time>1970-01-01T00:00:00+00:00</time>
        <ele>961.0</ele>
      </trkpt>
      <trkpt lat="46.309502" lon="6.536172">
        <time>1970-01-01T00:00:00+00:00</time>
        <ele>962.0</ele>
      </trkpt>
      <trkpt lat="46.309545" lon="6.535925">
        <time>1970-01-01T00:00:00+00:00</time>
        <ele>965.0</ele>
      </trkpt>
      <trkpt lat="46.309578" lon="6.535837">
        <time>1970-01-01T00:00:00+00:00</time>
        <ele>966.0</ele>
      </trkpt>
      <trkpt lat="46.310121" lon="6.535225">
        <time>1970-01-01T00:00:00+00:00</time>
        <ele>990.0</ele>
      </trkpt>
      <trkpt lat="46.310834" lon="6.535585">
        <time>1970-01-01T00:00:00+00:00</time>
        <ele>1012.0</ele>
      </trkpt>
      <trkpt lat="46.310953" lon="6.535719">
        <time>1970-01-01T00:00:00+00:00</time>
        <ele>1015.0</ele>
      </trkpt>
      <trkpt lat="46.311123" lon="6.536035">
        <time>1970-01-01T00:00:00+00:00</time>
        <ele>1018.0</ele>
      </trkpt>
      <trkpt lat="46.311183" lon="6.536073">
        <time>1970-01-01T00:00:00+00:00</time>
        <ele>1020.0</ele>
      </trkpt>
      <trkpt lat="46.31122" lon="6.536073">
        <time>1970-01-01T00:00:00+00:00</time>
        <ele>1022.0</ele>
      </trkpt>
      <trkpt lat="46.311282" lon="6.536031">
        <time>1970-01-01T00:00:00+00:00</time>
        <ele>1025.0</ele>
      </trkpt>
      <trkpt lat="46.311315" lon="6.536048">
        <time>1970-01-01T00:00:00+00:00</time>
        <ele>1026.0</ele>
      </trkpt>
      <trkpt lat="46.311352" lon="6.536105">
        <time>1970-01-01T00:00:00+00:00</time>
        <ele>1027.0</ele>
      </trkpt>
      <trkpt lat="46.311385" lon="6.536118">
        <time>1970-01-01T00:00:00+00:00</time>
        <ele>1028.0</ele>
      </trkpt>
      <trkpt lat="46.311538" lon="6.536083">
        <time>1970-01-01T00:00:00+00:00</time>
        <ele>1033.0</ele>
      </trkpt>
      <trkpt lat="46.311979" lon="6.536276">
        <time>1970-01-01T00:00:00+00:00</time>
        <ele>1044.0</ele>
      </trkpt>
      <trkpt lat="46.312383" lon="6.536254">
        <time>1970-01-01T00:00:00+00:00</time>
        <ele>1061.0</ele>
      </trkpt>
      <trkpt lat="46.312764" lon="6.536431">
        <time>1970-01-01T00:00:00+00:00</time>
        <ele>1077.0</ele>
      </trkpt>
      <trkpt lat="46.312942" lon="6.536598">
        <time>1970-01-01T00:00:00+00:00</time>
        <ele>1084.0</ele>
      </trkpt>
      <trkpt lat="46.313268" lon="6.53707">
        <time>1970-01-01T00:00:00+00:00</time>
        <ele>1101.0</ele>
      </trkpt>
      <trkpt lat="46.31365" lon="6.53722">
        <time>1970-01-01T00:00:00+00:00</time>
        <ele>1117.0</ele>
      </trkpt>
      <trkpt lat="46.314167" lon="6.537134">
        <time>1970-01-01T00:00:00+00:00</time>
        <ele>1135.0</ele>
      </trkpt>
      <trkpt lat="46.314301" lon="6.53762">
        <time>1970-01-01T00:00:00+00:00</time>
        <ele>1147.0</ele>
      </trkpt>
      <trkpt lat="46.31451" lon="6.537403">
        <time>1970-01-01T00:00:00+00:00</time>
        <ele>1151.0</ele>
      </trkpt>
      <trkpt lat="46.314604" lon="6.537206">
        <time>1970-01-01T00:00:00+00:00</time>
        <ele>1153.0</ele>
      </trkpt>
      <trkpt lat="46.31485" lon="6.536686">
        <time>1970-01-01T00:00:00+00:00</time>
        <ele>1166.0</ele>
      </trkpt>
      <trkpt lat="46.314979" lon="6.536923">
        <time>1970-01-01T00:00:00+00:00</time>
        <ele>1170.0</ele>
      </trkpt>
      <trkpt lat="46.314999" lon="6.537137">
        <time>1970-01-01T00:00:00+00:00</time>
        <ele>1171.0</ele>
      </trkpt>
      <trkpt lat="46.31507" lon="6.537346">
        <time>1970-01-01T00:00:00+00:00</time>
        <ele>1175.0</ele>
      </trkpt>
      <trkpt lat="46.31529" lon="6.537675">
        <time>1970-01-01T00:00:00+00:00</time>
        <ele>1178.0</ele>
      </trkpt>
      <trkpt lat="46.315661" lon="6.538619">
        <time>1970-01-01T00:00:00+00:00</time>
        <ele>1181.0</ele>
      </trkpt>
      <trkpt lat="46.315689" lon="6.539757">
        <time>1970-01-01T00:00:00+00:00</time>
        <ele>1214.0</ele>
      </trkpt>
      <trkpt lat="46.315689" lon="6.539757">
        <time>1970-01-01T00:00:00+00:00</time>
        <ele>1214.0</ele>
      </trkpt>
      <trkpt lat="46.315661" lon="6.538619">
        <time>1970-01-01T00:00:00+00:00</time>
        <ele>1181.0</ele>
      </trkpt>
      <trkpt lat="46.31529" lon="6.537675">
        <time>1970-01-01T00:00:00+00:00</time>
        <ele>1178.0</ele>
      </trkpt>
      <trkpt lat="46.31507" lon="6.537346">
        <time>1970-01-01T00:00:00+00:00</time>
        <ele>1175.0</ele>
      </trkpt>
      <trkpt lat="46.314999" lon="6.537137">
        <time>1970-01-01T00:00:00+00:00</time>
        <ele>1171.0</ele>
      </trkpt>
      <trkpt lat="46.314979" lon="6.536923">
        <time>1970-01-01T00:00:00+00:00</time>
        <ele>1170.0</ele>
      </trkpt>
      <trkpt lat="46.31485" lon="6.536686">
        <time>1970-01-01T00:00:00+00:00</time>
        <ele>1166.0</ele>
      </trkpt>
      <trkpt lat="46.314604" lon="6.537206">
        <time>1970-01-01T00:00:00+00:00</time>
        <ele>1153.0</ele>
      </trkpt>
      <trkpt lat="46.31451" lon="6.537403">
        <time>1970-01-01T00:00:00+00:00</time>
        <ele>1151.0</ele>
      </trkpt>
      <trkpt lat="46.314301" lon="6.53762">
        <time>1970-01-01T00:00:00+00:00</time>
        <ele>1147.0</ele>
      </trkpt>
      <trkpt lat="46.314167" lon="6.537134">
        <time>1970-01-01T00:00:00+00:00</time>
        <ele>1135.0</ele>
      </trkpt>
      <trkpt lat="46.31365" lon="6.53722">
        <time>1970-01-01T00:00:00+00:00</time>
        <ele>1117.0</ele>
      </trkpt>
      <trkpt lat="46.313268" lon="6.53707">
        <time>1970-01-01T00:00:00+00:00</time>
        <ele>1101.0</ele>
      </trkpt>
      <trkpt lat="46.312942" lon="6.536598">
        <time>1970-01-01T00:00:00+00:00</time>
        <ele>1084.0</ele>
      </trkpt>
      <trkpt lat="46.312764" lon="6.536431">
        <time>1970-01-01T00:00:00+00:00</time>
        <ele>1077.0</ele>
      </trkpt>
      <trkpt lat="46.312383" lon="6.536254">
        <time>1970-01-01T00:00:00+00:00</time>
        <ele>1061.0</ele>
      </trkpt>
      <trkpt lat="46.311979" lon="6.536276">
        <time>1970-01-01T00:00:00+00:00</time>
        <ele>1044.0</ele>
      </trkpt>
      <trkpt lat="46.311538" lon="6.536083">
        <time>1970-01-01T00:00:00+00:00</time>
        <ele>1033.0</ele>
      </trkpt>
      <trkpt lat="46.311385" lon="6.536118">
        <time>1970-01-01T00:00:00+00:00</time>
        <ele>1028.0</ele>
      </trkpt>
      <trkpt lat="46.311352" lon="6.536105">
        <time>1970-01-01T00:00:00+00:00</time>
        <ele>1027.0</ele>
      </trkpt>
      <trkpt lat="46.311315" lon="6.536048">
        <time>1970-01-01T00:00:00+00:00</time>
        <ele>1026.0</ele>
      </trkpt>
      <trkpt lat="46.311282" lon="6.536031">
        <time>1970-01-01T00:00:00+00:00</time>
        <ele>1025.0</ele>
      </trkpt>
      <trkpt lat="46.31122" lon="6.536073">
        <time>1970-01-01T00:00:00+00:00</time>
        <ele>1022.0</ele>
      </trkpt>
      <trkpt lat="46.311183" lon="6.536073">
        <time>1970-01-01T00:00:00+00:00</time>
        <ele>1020.0</ele>
      </trkpt>
      <trkpt lat="46.311123" lon="6.536035">
        <time>1970-01-01T00:00:00+00:00</time>
        <ele>1018.0</ele>
      </trkpt>
      <trkpt lat="46.310953" lon="6.535719">
        <time>1970-01-01T00:00:00+00:00</time>
        <ele>1015.0</ele>
      </trkpt>
      <trkpt lat="46.310834" lon="6.535585">
        <time>1970-01-01T00:00:00+00:00</time>
        <ele>1012.0</ele>
      </trkpt>
      <trkpt lat="46.310121" lon="6.535225">
        <time>1970-01-01T00:00:00+00:00</time>
        <ele>990.0</ele>
      </trkpt>
      <trkpt lat="46.309578" lon="6.535837">
        <time>1970-01-01T00:00:00+00:00</time>
        <ele>966.0</ele>
      </trkpt>
      <trkpt lat="46.309545" lon="6.535925">
        <time>1970-01-01T00:00:00+00:00</time>
        <ele>965.0</ele>
      </trkpt>
      <trkpt lat="46.309502" lon="6.536172">
        <time>1970-01-01T00:00:00+00:00</time>
        <ele>962.0</ele>
      </trkpt>
      <trkpt lat="46.309463" lon="6.536303">
        <time>1970-01-01T00:00:00+00:00</time>
        <ele>961.0</ele>
      </trkpt>
      <trkpt lat="46.309354" lon="6.536432">
        <time>1970-01-01T00:00:00+00:00</time>
        <ele>960.0</ele>
      </trkpt>
      <trkpt lat="46.309135" lon="6.536381">
        <time>1970-01-01T00:00:00+00:00</time>
        <ele>955.0</ele>
      </trkpt>
      <trkpt lat="46.308993" lon="6.53622">
        <time>1970-01-01T00:00:00+00:00</time>
        <ele>951.0</ele>
      </trkpt>
      <trkpt lat="46.308941" lon="6.536142">
        <time>1970-01-01T00:00:00+00:00</time>
        <ele>949.0</ele>
      </trkpt>
      <trkpt lat="46.308615" lon="6.535483">
        <time>1970-01-01T00:00:00+00:00</time>
        <ele>939.0</ele>
      </trkpt>
      <trkpt lat="46.308563" lon="6.535413">
        <time>1970-01-01T00:00:00+00:00</time>
        <ele>938.0</ele>
      </trkpt>
      <trkpt lat="46.3084" lon="6.535281">
        <time>1970-01-01T00:00:00+00:00</time>
        <ele>934.0</ele>
      </trkpt>
      <trkpt lat="46.308159" lon="6.535179">
        <time>1970-01-01T00:00:00+00:00</time>
        <ele>927.0</ele>
      </trkpt>
      <trkpt lat="46.307894" lon="6.534855">
        <time>1970-01-01T00:00:00+00:00</time>
        <ele>920.0</ele>
      </trkpt>
      <trkpt lat="46.307794" lon="6.534807">
        <time>1970-01-01T00:00:00+00:00</time>
        <ele>917.0</ele>
      </trkpt>
      <trkpt lat="46.30774" lon="6.534735">
        <time>1970-01-01T00:00:00+00:00</time>
        <ele>916.0</ele>
      </trkpt>
      <trkpt lat="46.307647" lon="6.534624">
        <time>1970-01-01T00:00:00+00:00</time>
        <ele>914.0</ele>
      </trkpt>
      <trkpt lat="46.307538" lon="6.53432">
        <time>1970-01-01T00:00:00+00:00</time>
        <ele>913.0</ele>
      </trkpt>
      <trkpt lat="46.307382" lon="6.534061">
        <time>1970-01-01T00:00:00+00:00</time>
        <ele>911.0</ele>
      </trkpt>
      <trkpt lat="46.307196" lon="6.533903">
        <time>1970-01-01T00:00:00+00:00</time>
        <ele>908.0</ele>
      </trkpt>
      <trkpt lat="46.307202" lon="6.533853">
        <time>1970-01-01T00:00:00+00:00</time>
        <ele>908.0</ele>
      </trkpt>
      <trkpt lat="46.30712" lon="6.533745">
        <time>1970-01-01T00:00:00+00:00</time>
        <ele>907.0</ele>
      </trkpt>
      <trkpt lat="46.307077" lon="6.533716">
        <time>1970-01-01T00:00:00+00:00</time>
        <ele>906.0</ele>
      </trkpt>
      <trkpt lat="46.306842" lon="6.53371">
        <time>1970-01-01T00:00:00+00:00</time>
        <ele>901.0</ele>
      </trkpt>
      <trkpt lat="46.306492" lon="6.533681">
        <time>1970-01-01T00:00:00+00:00</time>
        <ele>892.0</ele>
      </trkpt>
      <trkpt lat="46.306434" lon="6.533684">
        <time>1970-01-01T00:00:00+00:00</time>
        <ele>891.0</ele>
      </trkpt>
      <trkpt lat="46.306403" lon="6.533634">
        <time>1970-01-01T00:00:00+00:00</time>
        <ele>891.0</ele>
      </trkpt>
      <trkpt lat="46.306325" lon="6.53368">
        <time>1970-01-01T00:00:00+00:00</time>
        <ele>889.0</ele>
      </trkpt>
      <trkpt lat="46.306301" lon="6.53377">
        <time>1970-01-01T00:00:00+00:00</time>
        <ele>887.0</ele>
      </trkpt>
      <trkpt lat="46.306253" lon="6.534255">
        <time>1970-01-01T00:00:00+00:00</time>
        <ele>881.0</ele>
      </trkpt>
      <trkpt lat="46.306222" lon="6.534331">
        <time>1970-01-01T00:00:00+00:00</time>
        <ele>880.0</ele>
      </trkpt>
      <trkpt lat="46.306174" lon="6.534366">
        <time>1970-01-01T00:00:00+00:00</time>
        <ele>879.0</ele>
      </trkpt>
      <trkpt lat="46.306134" lon="6.53434">
        <time>1970-01-01T00:00:00+00:00</time>
        <ele>878.0</ele>
      </trkpt>
      <trkpt lat="46.306074" lon="6.534372">
        <time>1970-01-01T00:00:00+00:00</time>
        <ele>877.0</ele>
      </trkpt>
      <trkpt lat="46.30601" lon="6.534338">
        <time>1970-01-01T00:00:00+00:00</time>
        <ele>876.0</ele>
      </trkpt>
      <trkpt lat="46.305962" lon="6.53426">
        <time>1970-01-01T00:00:00+00:00</time>
        <ele>875.0</ele>
      </trkpt>
      <trkpt lat="46.305927" lon="6.534092">
        <time>1970-01-01T00:00:00+00:00</time>
        <ele>876.0</ele>
      </trkpt>
      <trkpt lat="46.305468" lon="6.533792">
        <time>1970-01-01T00:00:00+00:00</time>
        <ele>867.0</ele>
      </trkpt>
      <trkpt lat="46.305228" lon="6.533687">
        <time>1970-01-01T00:00:00+00:00</time>
        <ele>862.0</ele>
      </trkpt>
      <trkpt lat="46.305122" lon="6.53358">
        <time>1970-01-01T00:00:00+00:00</time>
        <ele>861.0</ele>
      </trkpt>
      <trkpt lat="46.305051" lon="6.533575">
        <time>1970-01-01T00:00:00+00:00</time>
        <ele>860.0</ele>
      </trkpt>
      <trkpt lat="46.304936" lon="6.533609">
        <time>1970-01-01T00:00:00+00:00</time>
        <ele>858.0</ele>
      </trkpt>
      <trkpt lat="46.304881" lon="6.533601">
        <time>1970-01-01T00:00:00+00:00</time>
        <ele>857.0</ele>
      </trkpt>
      <trkpt lat="46.304727" lon="6.533518">
        <time>1970-01-01T00:00:00+00:00</time>
        <ele>856.0</ele>
      </trkpt>
      <trkpt lat="46.304657" lon="6.533537">
        <time>1970-01-01T00:00:00+00:00</time>
        <ele>856.0</ele>
      </trkpt>
      <trkpt lat="46.304645" lon="6.533518">
        <time>1970-01-01T00:00:00+00:00</time>
        <ele>856.0</ele>
      </trkpt>
      <trkpt lat="46.304546" lon="6.533576">
        <time>1970-01-01T00:00:00+00:00</time>
        <ele>855.0</ele>
      </trkpt>
      <trkpt lat="46.304536" lon="6.533748">
        <time>1970-01-01T00:00:00+00:00</time>
        <ele>853.0</ele>
      </trkpt>
      <trkpt lat="46.304656" lon="6.53395">
        <time>1970-01-01T00:00:00+00:00</time>
        <ele>850.0</ele>
      </trkpt>
      <trkpt lat="46.304656" lon="6.533992">
        <time>1970-01-01T00:00:00+00:00</time>
        <ele>849.0</ele>
      </trkpt>
      <trkpt lat="46.304609" lon="6.534079">
        <time>1970-01-01T00:00:00+00:00</time>
        <ele>846.0</ele>
      </trkpt>
      <trkpt lat="46.304567" lon="6.534121">
        <time>1970-01-01T00:00:00+00:00</time>
        <ele>844.0</ele>
      </trkpt>
      <trkpt lat="46.304335" lon="6.534223">
        <time>1970-01-01T00:00:00+00:00</time>
        <ele>840.0</ele>
      </trkpt>
      <trkpt lat="46.304183" lon="6.534321">
        <time>1970-01-01T00:00:00+00:00</time>
        <ele>837.0</ele>
      </trkpt>
      <trkpt lat="46.304029" lon="6.534512">
        <time>1970-01-01T00:00:00+00:00</time>
        <ele>832.0</ele>
      </trkpt>
      <trkpt lat="46.304004" lon="6.534559">
        <time>1970-01-01T00:00:00+00:00</time>
        <ele>831.0</ele>
      </trkpt>
      <trkpt lat="46.303997" lon="6.534617">
        <time>1970-01-01T00:00:00+00:00</time>
        <ele>830.0</ele>
      </trkpt>
      <trkpt lat="46.304003" lon="6.534676">
        <time>1970-01-01T00:00:00+00:00</time>
        <ele>829.0</ele>
      </trkpt>
      <trkpt lat="46.304054" lon="6.53479">
        <time>1970-01-01T00:00:00+00:00</time>
        <ele>829.0</ele>
      </trkpt>
      <trkpt lat="46.304041" lon="6.5349">
        <time>1970-01-01T00:00:00+00:00</time>
        <ele>827.0</ele>
      </trkpt>
      <trkpt lat="46.303974" lon="6.53487">
        <time>1970-01-01T00:00:00+00:00</time>
        <ele>827.0</ele>
      </trkpt>
      <trkpt lat="46.303958" lon="6.534965">
        <time>1970-01-01T00:00:00+00:00</time>
        <ele>826.0</ele>
      </trkpt>
      <trkpt lat="46.30385" lon="6.535209">
        <time>1970-01-01T00:00:00+00:00</time>
        <ele>822.0</ele>
      </trkpt>
      <trkpt lat="46.303792" lon="6.535273">
        <time>1970-01-01T00:00:00+00:00</time>
        <ele>820.0</ele>
      </trkpt>
      <trkpt lat="46.303731" lon="6.53531">
        <time>1970-01-01T00:00:00+00:00</time>
        <ele>819.0</ele>
      </trkpt>
      <trkpt lat="46.303414" lon="6.535519">
        <time>1970-01-01T00:00:00+00:00</time>
        <ele>812.0</ele>
      </trkpt>
      <trkpt lat="46.303123" lon="6.535911">
        <time>1970-01-01T00:00:00+00:00</time>
        <ele>805.0</ele>
      </trkpt>
      <trkpt lat="46.303011" lon="6.536123">
        <time>1970-01-01T00:00:00+00:00</time>
        <ele>803.0</ele>
      </trkpt>
      <trkpt lat="46.302947" lon="6.536209">
        <time>1970-01-01T00:00:00+00:00</time>
        <ele>801.0</ele>
      </trkpt>
      <trkpt lat="46.302203" lon="6.53693">
        <time>1970-01-01T00:00:00+00:00</time>
        <ele>791.0</ele>
      </trkpt>
      <trkpt lat="46.30222" lon="6.536984">
        <time>1970-01-01T00:00:00+00:00</time>
        <ele>791.0</ele>
      </trkpt>
      <trkpt lat="46.302299" lon="6.537297">
        <time>1970-01-01T00:00:00+00:00</time>
        <ele>790.0</ele>
      </trkpt>
      <trkpt lat="46.302313" lon="6.537446">
        <time>1970-01-01T00:00:00+00:00</time>
        <ele>790.0</ele>
      </trkpt>
      <trkpt lat="46.302299" lon="6.537622">
        <time>1970-01-01T00:00:00+00:00</time>
        <ele>790.0</ele>
      </trkpt>
      <trkpt lat="46.302254" lon="6.537684">
        <time>1970-01-01T00:00:00+00:00</time>
        <ele>790.0</ele>
      </trkpt>
      <trkpt lat="46.302307" lon="6.537898">
        <time>1970-01-01T00:00:00+00:00</time>
        <ele>790.0</ele>
      </trkpt>
      <trkpt lat="46.302312" lon="6.538052">
        <time>1970-01-01T00:00:00+00:00</time>
        <ele>789.0</ele>
      </trkpt>
      <trkpt lat="46.302276" lon="6.539309">
        <time>1970-01-01T00:00:00+00:00</time>
        <ele>788.0</ele>
      </trkpt>
    </trkseg>
  </trk>
</gpx>
